Location: Unspecified
(50.7693°N, 0.0000°E)
Time: 11:18:35
(UTC+00:00)

Vanguard 1 Rocket - Pass Details

Date: 25 June 2019
Orbit: 651 x 4225 km, 34.3° (Epoch: 19 July)

Event Time Altitude Azimuth Distance (km) Brightness Sun altitude
Rises 18:46:34 0° 254° (WSW) 7,235 12.9 11.4°
Reaches altitude 10° 18:52:45 10° 247° (WSW) 5,613 12.2 10.5°
Maximum altitude 19:05:03 32° 192° (SSW) 2,773 9.8 8.7°
Drops below altitude 10° 19:12:14 10° 132° (SE) 3,234 9.6 7.7°
Sets 19:14:46 0° 122° (ESE) 3,885 9.9 7.3°
